Home > Time Zones > World Clock > Weather > Italy > Turin > Past weeks

Flag for Italy Weather past 2 weeks in Turin, Italy

Now
68 °F

Sunny.


Feels Like: 68 °F
Forecast: 63 / 78 °F
Wind: 3 mph from Northwest

Location: Torino / Bric Della Croce

Current Time: Aug 29, 2014 at 10:25:33 PM

Latest Report: Aug 29, 2014 at 8:55 PM


Visibility: 10 mi

Pressure: 30.07 "Hg

Humidity: 78%

Dew point: 61 °F

Location of TurinLocation

Historic Weather in Turin — Graph

°F

Turin temperature yesterday

Maximum temperature yesterday: 70 °F (at 12:55 AM)
Minimum temperature yesterday: 61 °F (at 7:55 AM)
Average temperature yesterday: 64 °F

Past Weeks' High & Low Weather Summary

 TemperatureHumidityPressure
High73 °F (Aug 14, 7:55 PM)100% (Aug 15, 6:55 AM)30.12 "Hg (Aug 15, 6:55 AM)
Low57 °F (Aug 15, 6:55 AM)27% (Aug 15, 1:55 AM)29.86 "Hg (Aug 14, 7:55 PM)
Average64 °F82%29.98 "Hg
* Reported Aug 14 7:55 PM — Aug 29 7:55 PM, Turin, Weather by CustomWeather, © 2014

Note: Actual official high and low records may vary slightly from our data, if they occured in-between our weather recording intervals... More about our weather records

Advertising

Turin weather history for previous 24 hours

 ConditionsComfort  
Time TempWeatherWind HumidityBarometerVisibility
7:55 PM
Aug 29
68 °FSunny.No wind78%30.07 "Hg10 mi
6:55 PM68 °FPassing clouds.No wind73%30.07 "Hg6 mi
5:55 PM70 °FScattered clouds.3 mph78%30.07 "Hg5 mi
4:55 PM70 °FScattered clouds.3 mph78%30.07 "Hg5 mi
3:55 PM70 °FScattered clouds.No wind78%30.07 "Hg4 mi
2:55 PM68 °FScattered clouds.No wind83%30.09 "Hg4 mi
1:55 PM68 °FScattered clouds.No wind83%30.09 "Hg4 mi
12:55 PM66 °FScattered clouds.No wind88%30.09 "Hg4 mi
11:55 AM66 °FScattered clouds.No wind88%30.12 "Hg4 mi
10:55 AM64 °FScattered clouds.2 mph100%30.12 "Hg4 mi
9:55 AM64 °FFog.No wind100%30.12 "Hg3 mi
8:55 AM64 °FFog.2 mph100%30.12 "Hg3 mi
7:55 AM63 °FBroken clouds.2 mph100%30.12 "Hg4 mi
6:55 AM63 °FFog.3 mph100%30.09 "Hg2 mi
5:55 AM63 °FFog.2 mph100%30.09 "Hg2 mi
4:55 AM63 °FFog.2 mph100%30.09 "Hg2 mi
3:55 AM63 °FPassing clouds.2 mph100%30.09 "Hg4 mi
2:55 AM63 °FPassing clouds.2 mph100%30.09 "Hg4 mi
1:55 AM63 °FPassing clouds.No wind100%30.09 "Hg4 mi
12:55 AM63 °FClear.2 mph100%30.09 "Hg4 mi
11:55 PM
Aug 28
63 °FClear.5 mph100%30.09 "Hg10 mi
10:55 PM63 °FClear.8 mph100%30.09 "Hg10 mi
Weather by CustomWeather, © 2014

See weather overviewHow to use our weather pages